Location: C.E.K. Mees Observatory
(42.7003°N, 77.4088°W)
Time: 00:12:34
(UTC-04:00)

Vanguard 3 - Pass Details

Date: 24 June 2018
Orbit: 508 x 3264 km, 33.3° (Epoch: 20 July)

Event Time Altitude Azimuth Distance (km) Brightness Sun altitude
Rises 02:05:42 0° 202° (SSW) 2,678 - -22.7°
Reaches altitude 10° 02:09:05 10° 168° (SSE) 1,999 - -22.6°
Maximum altitude 02:10:45 12° 145° (SE) 2,015 - -22.5°
Drops below altitude 10° 02:12:38 10° 124° (ESE) 2,318 - -22.4°
Exits shadow 02:12:45 10° 123° (ESE) 2,344 9.3 -22.4°
Sets 02:17:30 0° 95° (E) 3,805 10.7 -22.2°
